Regional Weather Roundup
Issued by NWS Charleston, WV

Home | Current Version | Previous Version | Text Only | Print | Product List | Glossary Off
Versions: 1 2 3 4 5 6 7 8 9 10 11 12 13 14 15 16 17 18 19 20 21 22 23 24 25 26 27 28 29 30 31 32 33 34 35 36 37 38 39 40 41 42 43 44 45 46 47 48 49 50

384
ASUS41 KRLX 091310
RWRRLX
West Virginia Regional Weather Roundup
National Weather Service Charleston WV
800 AM EST TUE FEB 09 2016

Note: "fair" indicates few or no clouds below 12,000 feet with no
significant weather and/or obstructions to visibility.

WVZ003-091400-
Northern Panhandle of West Virginia

CITY           SKY/WX    TMP DP  RH WIND       PRES   REMARKS
WHEELING       SNOW      30  27  88 W12       29.56R VSB 1/2
$$

WVZ009-091400-
Northwest West Virginia

CITY           SKY/WX    TMP DP  RH WIND       PRES   REMARKS
PARKERSBURG    LGT SNOW  24  21  88 W10G20    29.70R VSB 1
$$

WVZ006-091400-
Western West Virginia

CITY           SKY/WX    TMP DP  RH WIND       PRES   REMARKS
HUNTINGTON     MOCLDY    23  13  65 W8        29.75R
$$

WVZ015-091400-
West Central West Virginia

CITY           SKY/WX    TMP DP  RH WIND       PRES   REMARKS
CHARLESTON     LGT SNOW  24  19  81 W13       29.72R VSB 1
$$

WVZ022-031-091400-
North Central West Virginia

CITY           SKY/WX    TMP DP  RH WIND       PRES   REMARKS
CLARKSBURG     LGT SNOW  26  22  84 W12G25    29.62R FOG
MORGANTOWN     LGT SNOW  29  24  82 S7        29.58R VSB 3/4
$$

WVZ025-035-042-045-091400-
Southern West Virginia

CITY           SKY/WX    TMP DP  RH WIND       PRES   REMARKS
BECKLEY        LGT SNOW  21  16  81 NW13      29.61R WCI   9
LOGAN          MIX PCPN  23  19  86 SW8       29.68S
BLUEFIELD      LGT SNOW  19  15  84 W7        29.59S FOG     WCI  10
LEWISBURG      CLOUDY    28  23  82 W5        29.59R
$$

WVZ047-091400-
Northern Mountains of West Virginia

CITY           SKY/WX    TMP DP  RH WIND       PRES   REMARKS
ELKINS         LGT SNOW  25  19  78 SW9       29.59R
$$

WVZ052-091400-
Eastern Panhandle of West Virginia

CITY           SKY/WX    TMP DP  RH WIND       PRES   REMARKS
MARTINSBURG    LGT SNOW  33  32  96 CALM      29.56S VSB 1
PETERSBURG     CLOUDY    32  32  99 CALM      29.57R FOG
$$




USA.gov is the U.S. government's official web portal to all federal, state and local government web resources and services.